Location: Ferchesar
(52.6477°N, 12.4298°E)
Time: 12:45:03
(UTC+02:00)

Transit 4A - Pass Details

Date: 03 March 2021
Orbit: 869 x 975 km, 66.8° (Epoch: 15 April)

Event Time Altitude Azimuth Distance (km) Brightness Sun altitude
Rises 12:10:55 0° 240° (WSW) 3,659 11.3 30.7°
Reaches altitude 10° 12:13:35 10° 246° (WSW) 2,707 10.7 30.7°
Maximum altitude 12:19:43 49° 321° (NW) 1,218 8.6 30.7°
Drops below altitude 10° 12:25:43 10° 36° (NE) 2,658 9.9 30.7°
Sets 12:28:20 0° 42° (NE) 3,588 10.6 30.7°
